Location: Aix-en-Ergny
(50.5839°N, 1.9996°E)
Time: 03:04:23
(UTC+00:00)

ATLAS 3B R/B - Pass Details

Date: 23 October 2019
Orbit: 1029 x 1166 km, 63.8° (Epoch: 12 November)

Event Time Altitude Azimuth Distance (km) Brightness Sun altitude
Exits shadow 04:53:36 21° 256° (WSW) 2,161 3.7 -15.5°
Maximum altitude 04:54:08 21° 250° (WSW) 2,153 3.7 -15.4°
Drops below altitude 10° 04:59:02 10° 204° (SSW) 2,897 4.7 -14.6°
Sets 05:02:22 0° 189° (S) 3,872 5.5 -14.1°
